Time,TemperatureF,DewpointF,PressureIn,WindDirection,WindDirectionDegrees,WindSpeedMPH,WindSpeedGustMPH,Humidity,HourlyPrecipIn,Conditions,Clouds,dailyrainin,SoftwareType,DateUTC
2013-04-26 00:05:00,41.0,12.0,-100.00,North,-999,0.0,0.0,30,0.00,,,-99.99,FreeWX-Wi 1.01,2013-04-26 04:05:00,
2013-04-26 00:15:00,40.8,11.8,-100.00,North,-999,0.0,0.0,30,0.00,,,-99.99,FreeWX-Wi 1.01,2013-04-26 04:15:00,
2013-04-26 00:25:00,40.5,11.5,-100.00,North,-999,0.0,0.0,30,0.00,,,-99.99,FreeWX-Wi 1.01,2013-04-26 04:25:00,
2013-04-26 00:35:00,40.1,11.1,-100.00,North,-999,0.0,0.0,30,0.00,,,-99.99,FreeWX-Wi 1.01,2013-04-26 04:35:00,
2013-04-26 00:45:00,39.7,10.9,-100.00,North,-999,0.0,0.0,30,0.00,,,-99.99,FreeWX-Wi 1.01,2013-04-26 04:45:00,
2013-04-26 00:55:00,39.6,10.8,-100.00,North,-999,0.0,0.0,30,0.00,,,-99.99,FreeWX-Wi 1.01,2013-04-26 04:55:00,
2013-04-26 01:05:00,39.0,10.9,-100.00,North,-999,0.0,0.0,31,0.00,,,-99.99,FreeWX-Wi 1.01,2013-04-26 05:05:00,
2013-04-26 01:15:00,39.2,10.4,-100.00,North,-999,0.0,0.0,30,0.00,,,-99.99,FreeWX-Wi 1.01,2013-04-26 05:15:00,
2013-04-26 01:25:00,39.0,10.9,-100.00,North,-999,0.0,0.0,31,0.00,,,-99.99,FreeWX-Wi 1.01,2013-04-26 05:25:00,
2013-04-26 01:35:00,39.0,10.9,-100.00,North,-999,0.0,0.0,31,0.00,,,-99.99,FreeWX-Wi 1.01,2013-04-26 05:35:00,
2013-04-26 01:45:00,39.0,10.9,-100.00,North,-999,0.0,0.0,31,0.00,,,-99.99,FreeWX-Wi 1.01,2013-04-26 05:45:00,
2013-04-26 01:55:00,38.8,10.8,-100.00,North,-999,0.0,0.0,31,0.00,,,-99.99,FreeWX-Wi 1.01,2013-04-26 05:55:00,
2013-04-26 02:05:00,38.3,10.4,-100.00,North,-999,0.0,0.0,31,0.00,,,-99.99,FreeWX-Wi 1.01,2013-04-26 06:05:00,
2013-04-26 02:15:00,37.8,9.9,-100.00,North,-999,0.0,0.0,31,0.00,,,-99.99,FreeWX-Wi 1.01,2013-04-26 06:15:00,
2013-04-26 02:25:00,37.4,9.5,-100.00,North,-999,0.0,0.0,31,0.00,,,-99.99,FreeWX-Wi 1.01,2013-04-26 06:25:00,
2013-04-26 02:35:00,37.0,9.3,-100.00,North,-999,0.0,0.0,31,0.00,,,-99.99,FreeWX-Wi 1.01,2013-04-26 06:35:00,
2013-04-26 02:45:00,36.9,9.1,-100.00,North,-999,0.0,0.0,31,0.00,,,-99.99,FreeWX-Wi 1.01,2013-04-26 06:45:00,
2013-04-26 02:55:00,36.9,9.1,-100.00,North,-999,0.0,0.0,31,0.00,,,-99.99,FreeWX-Wi 1.01,2013-04-26 06:55:00,
2013-04-26 03:05:00,36.5,8.8,-100.00,North,-999,0.0,0.0,31,0.00,,,-99.99,FreeWX-Wi 1.01,2013-04-26 07:05:00,
2013-04-26 03:15:00,36.1,8.4,-100.00,North,-999,0.0,0.0,31,0.00,,,-99.99,FreeWX-Wi 1.01,2013-04-26 07:15:00,
2013-04-26 03:25:00,36.1,8.4,-100.00,North,-999,0.0,0.0,31,0.00,,,-99.99,FreeWX-Wi 1.01,2013-04-26 07:25:00,
2013-04-26 03:35:00,36.1,8.4,-100.00,North,-999,0.0,0.0,31,0.00,,,-99.99,FreeWX-Wi 1.01,2013-04-26 07:35:00,
2013-04-26 03:45:00,36.1,8.4,-100.00,North,-999,0.0,0.0,31,0.00,,,-99.99,FreeWX-Wi 1.01,2013-04-26 07:45:00,
2013-04-26 03:55:00,36.1,8.4,-100.00,North,-999,0.0,0.0,31,0.00,,,-99.99,FreeWX-Wi 1.01,2013-04-26 07:55:00,
2013-04-26 04:05:00,35.8,8.1,-100.00,North,-999,0.0,0.0,31,0.00,,,-99.99,FreeWX-Wi 1.01,2013-04-26 08:05:00,
2013-04-26 04:15:00,35.6,8.1,-100.00,North,-999,0.0,0.0,31,0.00,,,-99.99,FreeWX-Wi 1.01,2013-04-26 08:15:00,
2013-04-26 04:25:00,36.1,8.4,-100.00,North,-999,0.0,0.0,31,0.00,,,-99.99,FreeWX-Wi 1.01,2013-04-26 08:25:00,
2013-04-26 04:35:00,37.4,9.5,-100.00,North,-999,0.0,0.0,31,0.00,,,-99.99,FreeWX-Wi 1.01,2013-04-26 08:35:00,
2013-04-26 04:45:00,37.9,10.0,-100.00,North,-999,0.0,0.0,31,0.00,,,-99.99,FreeWX-Wi 1.01,2013-04-26 08:45:00,
2013-04-26 04:55:00,37.9,10.0,-100.00,North,-999,0.0,0.0,31,0.00,,,-99.99,FreeWX-Wi 1.01,2013-04-26 08:55:00,
2013-04-26 05:05:00,38.3,10.4,-100.00,North,-999,0.0,0.0,31,0.00,,,-99.99,FreeWX-Wi 1.01,2013-04-26 09:05:00,
2013-04-26 05:15:00,38.5,10.6,-100.00,North,-999,0.0,0.0,31,0.00,,,-99.99,FreeWX-Wi 1.01,2013-04-26 09:15:00,
2013-04-26 05:25:00,38.7,10.6,-100.00,North,-999,0.0,0.0,31,0.00,,,-99.99,FreeWX-Wi 1.01,2013-04-26 09:25:00,
2013-04-26 05:35:00,38.7,10.6,-100.00,North,-999,0.0,0.0,31,0.00,,,-99.99,FreeWX-Wi 1.01,2013-04-26 09:35:00,
2013-04-26 05:45:00,38.3,10.4,-100.00,North,-999,0.0,0.0,31,0.00,,,-99.99,FreeWX-Wi 1.01,2013-04-26 09:45:00,
2013-04-26 05:55:00,37.0,9.3,-100.00,North,-999,0.0,0.0,31,0.00,,,-99.99,FreeWX-Wi 1.01,2013-04-26 09:55:00,
2013-04-26 06:05:00,36.1,8.4,-100.00,North,-999,0.0,0.0,31,0.00,,,-99.99,FreeWX-Wi 1.01,2013-04-26 10:05:00,
2013-04-26 06:15:00,35.6,8.1,-100.00,North,-999,0.0,0.0,31,0.00,,,-99.99,FreeWX-Wi 1.01,2013-04-26 10:15:00,
2013-04-26 06:25:00,35.2,7.7,-100.00,North,-999,0.0,0.0,31,0.00,,,-99.99,FreeWX-Wi 1.01,2013-04-26 10:25:00,
2013-04-26 06:35:00,35.2,7.7,-100.00,North,-999,0.0,0.0,31,0.00,,,-99.99,FreeWX-Wi 1.01,2013-04-26 10:35:00,
2013-04-26 06:45:00,36.5,10.2,-100.00,North,-999,0.0,0.0,33,0.00,,,-99.99,FreeWX-Wi 1.01,2013-04-26 10:45:00,
2013-04-26 06:55:00,39.2,12.6,-100.00,North,-999,0.0,0.0,33,0.00,,,-99.99,FreeWX-Wi 1.01,2013-04-26 10:55:00,
2013-04-26 07:05:00,40.3,11.3,-100.00,North,-999,0.0,0.0,30,0.00,,,-99.99,FreeWX-Wi 1.01,2013-04-26 11:05:00,
2013-04-26 07:15:00,41.5,12.4,-100.00,North,-999,0.0,0.0,30,0.00,,,-99.99,FreeWX-Wi 1.01,2013-04-26 11:15:00,
2013-04-26 07:25:00,43.2,13.1,-100.00,North,-999,0.0,0.0,29,0.00,,,-99.99,FreeWX-Wi 1.01,2013-04-26 11:25:00,
2013-04-26 07:35:00,45.3,14.9,-100.00,North,-999,0.0,0.0,29,0.00,,,-99.99,FreeWX-Wi 1.01,2013-04-26 11:35:00,
2013-04-26 07:45:00,46.9,16.3,-100.00,North,-999,0.0,0.0,29,0.00,,,-99.99,FreeWX-Wi 1.01,2013-04-26 11:45:00,
2013-04-26 07:55:00,47.5,16.9,-100.00,North,-999,0.0,4.0,29,0.00,,,-99.99,FreeWX-Wi 1.01,2013-04-26 11:55:00,
2013-04-26 08:05:00,48.2,16.7,-100.00,North,-999,0.0,3.1,28,0.00,,,-99.99,FreeWX-Wi 1.01,2013-04-26 12:05:00,
2013-04-26 08:15:00,49.8,18.0,-100.00,North,-999,0.0,4.5,28,0.00,,,-99.99,FreeWX-Wi 1.01,2013-04-26 12:15:00,
2013-04-26 08:25:00,50.2,18.3,-100.00,North,-999,0.0,5.8,28,0.00,,,-99.99,FreeWX-Wi 1.01,2013-04-26 12:25:00,
2013-04-26 08:35:00,50.9,19.0,-100.00,North,-999,0.0,3.6,28,0.00,,,-99.99,FreeWX-Wi 1.01,2013-04-26 12:35:00,
2013-04-26 08:45:00,52.9,19.8,-100.00,North,-999,0.0,5.4,27,0.00,,,-99.99,FreeWX-Wi 1.01,2013-04-26 12:45:00,
2013-04-26 08:55:00,54.9,21.6,-100.00,North,-999,0.0,3.6,27,0.00,,,-99.99,FreeWX-Wi 1.01,2013-04-26 12:55:00,
2013-04-26 09:05:00,55.0,21.7,-100.00,North,-999,0.0,3.1,27,0.00,,,-99.99,FreeWX-Wi 1.01,2013-04-26 13:05:00,
2013-04-26 09:15:00,55.9,22.5,-100.00,North,-999,0.0,6.3,27,0.00,,,-99.99,FreeWX-Wi 1.01,2013-04-26 13:15:00,
2013-04-26 09:25:00,57.6,23.0,-100.00,North,-999,0.0,4.9,26,0.00,,,-99.99,FreeWX-Wi 1.01,2013-04-26 13:25:00,
2013-04-26 09:35:00,59.2,24.3,-100.00,North,-999,0.0,6.3,26,0.00,,,-99.99,FreeWX-Wi 1.01,2013-04-26 13:35:00,
2013-04-26 09:45:00,58.3,23.5,-100.00,North,-999,0.0,5.4,26,0.00,,,-99.99,FreeWX-Wi 1.01,2013-04-26 13:45:00,
2013-04-26 09:55:00,57.2,22.6,-100.00,North,-999,0.0,4.5,26,0.00,,,-99.99,FreeWX-Wi 1.01,2013-04-26 13:55:00,
2013-04-26 10:05:00,55.9,22.5,-100.00,North,-999,0.0,5.4,27,0.00,,,-99.99,FreeWX-Wi 1.01,2013-04-26 14:05:00,
2013-04-26 10:15:00,55.6,22.1,-100.00,North,-999,0.0,5.8,27,0.00,,,-99.99,FreeWX-Wi 1.01,2013-04-26 14:15:00,
2013-04-26 10:25:00,55.6,22.1,-100.00,North,-999,0.0,4.5,27,0.00,,,-99.99,FreeWX-Wi 1.01,2013-04-26 14:25:00,
2013-04-26 10:35:00,55.6,22.1,-100.00,North,-999,0.0,3.6,27,0.00,,,-99.99,FreeWX-Wi 1.01,2013-04-26 14:35:00,
2013-04-26 10:45:00,55.4,21.9,-100.00,North,-999,0.0,5.8,27,0.00,,,-99.99,FreeWX-Wi 1.01,2013-04-26 14:45:00,
2013-04-26 10:55:00,55.2,21.9,-100.00,North,-999,0.0,5.8,27,0.00,,,-99.99,FreeWX-Wi 1.01,2013-04-26 14:55:00,
2013-04-26 11:05:00,55.0,21.7,-100.00,North,-999,0.0,4.0,27,0.00,,,-99.99,FreeWX-Wi 1.01,2013-04-26 15:05:00,
2013-04-26 11:15:00,54.9,21.6,-100.00,North,-999,0.0,2.7,27,0.00,,,-99.99,FreeWX-Wi 1.01,2013-04-26 15:15:00,
2013-04-26 11:25:00,54.3,21.0,-100.00,North,-999,0.0,3.6,27,0.00,,,-99.99,FreeWX-Wi 1.01,2013-04-26 15:25:00,
2013-04-26 11:35:00,54.3,21.0,-100.00,North,-999,0.0,3.6,27,0.00,,,-99.99,FreeWX-Wi 1.01,2013-04-26 15:35:00,
2013-04-26 11:45:00,54.9,21.6,-100.00,North,-999,0.0,3.6,27,0.00,,,-99.99,FreeWX-Wi 1.01,2013-04-26 15:45:00,
2013-04-26 11:55:00,55.0,21.7,-100.00,North,-999,0.0,3.6,27,0.00,,,-99.99,FreeWX-Wi 1.01,2013-04-26 15:55:00,
2013-04-26 12:05:00,55.6,22.1,-100.00,North,-999,0.0,3.1,27,0.00,,,-99.99,FreeWX-Wi 1.01,2013-04-26 16:05:00,
2013-04-26 12:15:00,55.6,22.1,-100.00,North,-999,0.0,3.6,27,0.00,,,-99.99,FreeWX-Wi 1.01,2013-04-26 16:15:00,
2013-04-26 12:25:00,55.0,21.7,-100.00,North,-999,0.0,4.9,27,0.00,,,-99.99,FreeWX-Wi 1.01,2013-04-26 16:25:00,
2013-04-26 12:35:00,55.2,21.9,-100.00,North,-999,0.0,4.9,27,0.00,,,-99.99,FreeWX-Wi 1.01,2013-04-26 16:35:00,
2013-04-26 12:45:00,54.7,21.4,-100.00,North,-999,0.0,4.0,27,0.00,,,-99.99,FreeWX-Wi 1.01,2013-04-26 16:45:00,
2013-04-26 12:55:00,54.9,21.6,-100.00,North,-999,0.0,4.0,27,0.00,,,-99.99,FreeWX-Wi 1.01,2013-04-26 16:55:00,
2013-04-26 13:05:00,55.0,21.7,-100.00,North,-999,0.0,4.0,27,0.00,,,-99.99,FreeWX-Wi 1.01,2013-04-26 17:05:00,
2013-04-26 13:15:00,55.6,22.1,-100.00,North,-999,0.0,4.0,27,0.00,,,-99.99,FreeWX-Wi 1.01,2013-04-26 17:15:00,
2013-04-26 13:25:00,55.6,22.1,-100.00,North,-999,0.0,4.0,27,0.00,,,-99.99,FreeWX-Wi 1.01,2013-04-26 17:25:00,
2013-04-26 13:35:00,55.2,21.9,-100.00,North,-999,0.0,3.1,27,0.00,,,-99.99,FreeWX-Wi 1.01,2013-04-26 17:35:00,
2013-04-26 13:45:00,55.4,21.9,-100.00,North,-999,0.0,3.6,27,0.00,,,-99.99,FreeWX-Wi 1.01,2013-04-26 17:45:00,
2013-04-26 13:55:00,55.2,21.9,-100.00,North,-999,0.0,4.9,27,0.00,,,-99.99,FreeWX-Wi 1.01,2013-04-26 17:55:00,
2013-04-26 14:05:00,55.2,21.9,-100.00,North,-999,0.0,3.1,27,0.00,,,-99.99,FreeWX-Wi 1.01,2013-04-26 18:05:00,
2013-04-26 14:15:00,55.4,21.9,-100.00,North,-999,0.0,7.2,27,0.00,,,-99.99,FreeWX-Wi 1.01,2013-04-26 18:15:00,
2013-04-26 14:25:00,55.6,22.1,-100.00,North,-999,0.0,5.4,27,0.00,,,-99.99,FreeWX-Wi 1.01,2013-04-26 18:25:00,
2013-04-26 14:35:00,55.9,22.5,-100.00,North,-999,0.0,4.0,27,0.00,,,-99.99,FreeWX-Wi 1.01,2013-04-26 18:35:00,
2013-04-26 14:45:00,56.1,22.6,-100.00,North,-999,0.0,4.0,27,0.00,,,-99.99,FreeWX-Wi 1.01,2013-04-26 18:45:00,
2013-04-26 14:55:00,55.8,22.3,-100.00,North,-999,0.0,7.6,27,0.00,,,-99.99,FreeWX-Wi 1.01,2013-04-26 18:55:00,
2013-04-26 15:05:00,55.4,21.9,-100.00,North,-999,0.0,4.9,27,0.00,,,-99.99,FreeWX-Wi 1.01,2013-04-26 19:05:00,
2013-04-26 15:15:00,54.9,21.6,-100.00,WSW,254,1.0,5.4,27,0.00,,,-99.99,FreeWX-Wi 1.01,2013-04-26 19:15:00,
2013-04-26 15:25:00,54.5,21.2,-100.00,North,-999,0.0,7.2,27,0.00,,,-99.99,FreeWX-Wi 1.01,2013-04-26 19:25:00,
2013-04-26 15:35:00,54.5,21.2,-100.00,North,-999,0.0,3.6,27,0.00,,,-99.99,FreeWX-Wi 1.01,2013-04-26 19:35:00,
2013-04-26 15:45:00,54.1,20.8,-100.00,North,-999,0.0,5.8,27,0.00,,,-99.99,FreeWX-Wi 1.01,2013-04-26 19:45:00,
2013-04-26 15:55:00,53.8,20.7,-100.00,North,-999,0.0,5.4,27,0.00,,,-99.99,FreeWX-Wi 1.01,2013-04-26 19:55:00,
2013-04-26 16:05:00,53.6,20.5,-100.00,WSW,238,1.0,5.8,27,0.00,,,-99.99,FreeWX-Wi 1.01,2013-04-26 20:05:00,
2013-04-26 16:15:00,53.2,20.1,-100.00,North,-999,0.0,4.9,27,0.00,,,-99.99,FreeWX-Wi 1.01,2013-04-26 20:15:00,
2013-04-26 16:25:00,53.4,20.3,-100.00,NW,311,1.0,5.4,27,0.00,,,-99.99,FreeWX-Wi 1.01,2013-04-26 20:25:00,
2013-04-26 16:35:00,53.2,20.1,-100.00,North,-999,0.0,4.0,27,0.00,,,-99.99,FreeWX-Wi 1.01,2013-04-26 20:35:00,
2013-04-26 16:45:00,52.7,19.8,-100.00,North,-999,0.0,6.3,27,0.00,,,-99.99,FreeWX-Wi 1.01,2013-04-26 20:45:00,
2013-04-26 16:55:00,52.3,19.4,-100.00,North,-999,0.0,2.2,27,0.00,,,-99.99,FreeWX-Wi 1.01,2013-04-26 20:55:00,
2013-04-26 17:05:00,52.5,19.6,-100.00,North,-999,0.0,3.6,27,0.00,,,-99.99,FreeWX-Wi 1.01,2013-04-26 21:05:00,
2013-04-26 17:15:00,52.3,19.4,-100.00,North,-999,0.0,3.6,27,0.00,,,-99.99,FreeWX-Wi 1.01,2013-04-26 21:15:00,
2013-04-26 17:25:00,52.0,19.0,-100.00,North,-999,0.0,2.7,27,0.00,,,-99.99,FreeWX-Wi 1.01,2013-04-26 21:25:00,
2013-04-26 17:35:00,51.1,19.0,-100.00,North,-999,0.0,2.7,28,0.00,,,-99.99,FreeWX-Wi 1.01,2013-04-26 21:35:00,
2013-04-26 17:45:00,50.5,18.7,-100.00,North,-999,0.0,3.1,28,0.00,,,-99.99,FreeWX-Wi 1.01,2013-04-26 21:45:00,
2013-04-26 17:55:00,50.0,18.1,-100.00,North,-999,0.0,3.1,28,0.00,,,-99.99,FreeWX-Wi 1.01,2013-04-26 21:55:00,
2013-04-26 18:05:00,49.6,18.0,-100.00,North,-999,0.0,0.0,28,0.00,,,-99.99,FreeWX-Wi 1.01,2013-04-26 22:05:00,
2013-04-26 18:15:00,49.5,17.8,-100.00,North,-999,0.0,3.6,28,0.00,,,-99.99,FreeWX-Wi 1.01,2013-04-26 22:15:00,
2013-04-26 18:25:00,49.5,17.8,-100.00,North,-999,0.0,3.6,28,0.00,,,-99.99,FreeWX-Wi 1.01,2013-04-26 22:25:00,
2013-04-26 18:35:00,49.1,17.4,-100.00,North,-999,0.0,3.6,28,0.00,,,-99.99,FreeWX-Wi 1.01,2013-04-26 22:35:00,
2013-04-26 18:45:00,48.7,17.1,-100.00,North,-999,0.0,3.1,28,0.00,,,-99.99,FreeWX-Wi 1.01,2013-04-26 22:45:00,
2013-04-26 18:55:00,48.4,16.9,-100.00,North,-999,0.0,0.0,28,0.00,,,-99.99,FreeWX-Wi 1.01,2013-04-26 22:55:00,
2013-04-26 19:05:00,48.2,16.7,-100.00,North,-999,0.0,0.0,28,0.00,,,-99.99,FreeWX-Wi 1.01,2013-04-26 23:05:00,
2013-04-26 19:15:00,47.5,16.9,-100.00,North,-999,0.0,3.1,29,0.00,,,-99.99,FreeWX-Wi 1.01,2013-04-26 23:15:00,
2013-04-26 19:25:00,46.8,16.2,-100.00,North,-999,0.0,0.0,29,0.00,,,-99.99,FreeWX-Wi 1.01,2013-04-26 23:25:00,
2013-04-26 19:35:00,46.4,16.0,-100.00,North,-999,0.0,0.0,29,0.00,,,-99.99,FreeWX-Wi 1.01,2013-04-26 23:35:00,
2013-04-26 19:45:00,46.0,15.6,-100.00,North,-999,0.0,0.0,29,0.00,,,-99.99,FreeWX-Wi 1.01,2013-04-26 23:45:00,
2013-04-26 20:15:00,45.1,16.3,-100.00,North,-999,0.0,0.0,31,0.00,,,-99.99,FreeWX-Wi 1.01,2013-04-27 00:15:00,
2013-04-26 20:25:00,45.0,16.2,-100.00,North,-999,0.0,0.0,31,0.00,,,-99.99,FreeWX-Wi 1.01,2013-04-27 00:25:00,
2013-04-26 20:35:00,44.6,15.8,-100.00,North,-999,0.0,4.9,31,0.00,,,-99.99,FreeWX-Wi 1.01,2013-04-27 00:35:00,
2013-04-26 20:45:00,44.4,16.3,-100.00,North,-999,0.0,0.0,32,0.00,,,-99.99,FreeWX-Wi 1.01,2013-04-27 00:45:00,
2013-04-26 20:55:00,44.2,16.3,-100.00,North,-999,0.0,0.0,32,0.00,,,-99.99,FreeWX-Wi 1.01,2013-04-27 00:55:00,
2013-04-26 21:05:00,43.9,17.4,-100.00,North,-999,0.0,0.0,34,0.00,,,-99.99,FreeWX-Wi 1.01,2013-04-27 01:05:00,
2013-04-26 21:15:00,43.7,17.2,-100.00,North,-999,0.0,0.0,34,0.00,,,-99.99,FreeWX-Wi 1.01,2013-04-27 01:15:00,
2013-04-26 21:25:00,43.7,19.2,-100.00,North,-999,0.0,0.0,37,0.00,,,-99.99,FreeWX-Wi 1.01,2013-04-27 01:25:00,
2013-04-26 21:35:00,43.5,19.0,-100.00,North,-999,0.0,0.0,37,0.00,,,-99.99,FreeWX-Wi 1.01,2013-04-27 01:35:00,
2013-04-26 21:45:00,43.3,20.1,-100.00,North,-999,0.0,0.0,39,0.00,,,-99.99,FreeWX-Wi 1.01,2013-04-27 01:45:00,
2013-04-26 21:55:00,43.2,19.9,-100.00,North,-999,0.0,0.0,39,0.00,,,-99.99,FreeWX-Wi 1.01,2013-04-27 01:55:00,
2013-04-26 22:05:00,43.0,21.6,-100.00,North,-999,0.0,0.0,42,0.00,,,-99.99,FreeWX-Wi 1.01,2013-04-27 02:05:00,
2013-04-26 22:15:00,42.6,21.2,-100.00,North,-999,0.0,0.0,42,0.00,,,-99.99,FreeWX-Wi 1.01,2013-04-27 02:15:00,
2013-04-26 22:25:00,42.4,21.6,-100.00,North,-999,0.0,0.0,43,0.00,,,-99.99,FreeWX-Wi 1.01,2013-04-27 02:25:00,
2013-04-26 22:35:00,42.3,21.4,-100.00,North,-999,0.0,0.0,43,0.00,,,-99.99,FreeWX-Wi 1.01,2013-04-27 02:35:00,
2013-04-26 22:45:00,41.7,20.8,-100.00,North,-999,0.0,0.0,43,0.00,,,-99.99,FreeWX-Wi 1.01,2013-04-27 02:45:00,
2013-04-26 22:55:00,41.5,20.7,-100.00,North,-999,0.0,0.0,43,0.00,,,-99.99,FreeWX-Wi 1.01,2013-04-27 02:55:00,
2013-04-26 23:05:00,41.2,21.0,-100.00,North,-999,0.0,0.0,44,0.00,,,-99.99,FreeWX-Wi 1.01,2013-04-27 03:05:00,
2013-04-26 23:15:00,41.2,21.0,-100.00,North,-999,0.0,0.0,44,0.00,,,-99.99,FreeWX-Wi 1.01,2013-04-27 03:15:00,
2013-04-26 23:25:00,41.2,21.0,-100.00,North,-999,0.0,0.0,44,0.00,,,-99.99,FreeWX-Wi 1.01,2013-04-27 03:25:00,
2013-04-26 23:35:00,41.0,21.4,-100.00,North,-999,0.0,0.0,45,0.00,,,-99.99,FreeWX-Wi 1.01,2013-04-27 03:35:00,
2013-04-26 23:45:00,40.8,21.2,-100.00,North,-999,0.0,0.0,45,0.00,,,-99.99,FreeWX-Wi 1.01,2013-04-27 03:45:00,
2013-04-26 23:55:00,40.6,21.6,-100.00,North,-999,0.0,0.0,46,0.00,,,-99.99,FreeWX-Wi 1.01,2013-04-27 03:55:00,